Flag for Monaco Weather past 2 weeks in Monaco, Monaco

Now
52 °F

Partly cloudy.


Feels Like: 49 °F
Forecast: 45 / 65 °F
Wind: 7 mph from Northwest

Location: Nice Airport

Current Time: Mar 1, 2015 at 10:28:49 PM

Latest Report: Mar 1, 2015 at 10:00 PM


Visibility: N/A

Pressure: 29.98 "Hg

Humidity: 72%

Dew point: 43 °F

Location of MonacoLocation

Historic Weather in Monaco — Graph

°F

Monaco temperature yesterday

Maximum temperature yesterday: 57 °F (at 11:30 AM)
Minimum temperature yesterday: 46 °F (at 12:00 AM)
Average temperature yesterday: 52 °F

Past Weeks' High & Low Weather Summary

 TemperatureHumidityPressure
High61 °F (Feb 16, 1:00 PM)93% (Feb 21, 3:00 PM)30.51 "Hg (Feb 21, 3:00 PM)
Low41 °F (Feb 19, 6:50 AM)30% (Feb 26, 11:00 AM)29.42 "Hg (Feb 22, 4:00 AM)
Average50 °F65%29.94 "Hg
* Reported Feb 14 8:00 PM — Mar 1 8:30 PM, Monaco, Weather by CustomWeather, © 2015

Note: Actual official high and low records may vary slightly from our data, if they occured in-between our weather recording intervals... More about our weather records

Advertising

Monaco weather history for previous 24 hours

 ConditionsComfort  
Time TempWeatherWind HumidityBarometerVisibility
8:30 PM
Sun, Mar 1
55 °FPassing clouds.10 mph77%29.95 "HgN/A
8:00 PM55 °FPassing clouds.3 mph72%29.95 "HgN/A
7:30 PM57 °FPassing clouds.13 mph72%29.95 "HgN/A
7:00 PM57 °FPassing clouds.15 mph72%29.95 "HgN/A
6:30 PM57 °FPassing clouds.12 mph72%29.92 "HgN/A
6:00 PM57 °FPartly sunny.12 mph72%29.92 "HgN/A
5:30 PM57 °FScattered clouds.13 mph67%29.92 "HgN/A
5:00 PM57 °FScattered clouds.15 mph67%29.92 "HgN/A
4:30 PM59 °FPassing clouds.15 mph63%29.92 "HgN/A
4:00 PM59 °FPassing clouds.13 mph63%29.95 "HgN/A
3:30 PM59 °FPassing clouds.10 mph59%29.95 "HgN/A
3:00 PM59 °FPassing clouds.12 mph59%29.95 "HgN/A
2:30 PM59 °FPassing clouds.13 mph55%29.95 "HgN/A
2:00 PM59 °FPassing clouds.10 mph55%29.98 "HgN/A
1:30 PM57 °FPassing clouds.8 mph55%29.98 "HgN/A
1:00 PM57 °FPassing clouds.5 mph51%30.01 "HgN/A
12:30 PM57 °FPassing clouds.5 mph51%30.01 "HgN/A
12:00 PM55 °FPassing clouds.6 mph55%30.04 "HgN/A
11:30 AM55 °FScattered clouds.9 mph51%30.04 "HgN/A
11:00 AM54 °FScattered clouds.6 mph51%30.04 "HgN/A
10:30 AM54 °FPassing clouds.3 mph51%30.04 "HgN/A
10:00 AM52 °FScattered clouds.6 mph58%30.04 "HgN/A
9:30 AM48 °FSunny.8 mph66%30.07 "Hg10 mi
9:00 AM48 °FSunny.10 mph66%30.07 "Hg10 mi
8:30 AM46 °FSunny.9 mph66%30.07 "Hg10 mi
8:00 AM46 °FPartly sunny.10 mph66%30.04 "HgN/A
7:30 AM46 °FPartly sunny.8 mph71%30.04 "HgN/A
7:00 AM46 °FPassing clouds.9 mph66%30.04 "HgN/A
6:30 AM46 °FClear.3 mph71%30.04 "Hg10 mi
6:00 AM46 °FClear.10 mph71%30.04 "Hg10 mi
5:30 AM46 °FClear.9 mph71%30.04 "Hg10 mi
5:00 AM46 °FClear.12 mph71%30.04 "Hg10 mi
4:30 AM46 °FClear.12 mph71%30.04 "Hg10 mi
4:00 AM46 °FClear.12 mph71%30.04 "Hg10 mi
3:30 AM46 °FClear.12 mph71%30.07 "Hg10 mi
3:00 AM46 °FClear.9 mph71%30.07 "Hg10 mi
2:30 AM46 °FClear.8 mph71%30.07 "Hg10 mi
2:00 AM46 °FClear.8 mph71%30.07 "Hg10 mi
1:30 AM46 °FClear.9 mph71%30.07 "Hg10 mi
1:00 AM48 °FPassing clouds.7 mph66%30.07 "HgN/A
12:30 AM48 °FPassing clouds.7 mph71%30.07 "HgN/A
12:00 AM48 °FPassing clouds.12 mph71%30.07 "HgN/A
11:30 PM
Sat, Feb 28
50 °FPassing clouds.6 mph67%30.07 "HgN/A
11:00 PM50 °FPassing clouds.7 mph71%30.07 "HgN/A
10:30 PM50 °FPassing clouds.6 mph71%30.09 "HgN/A
10:00 PM52 °FPassing clouds.5 mph67%30.09 "HgN/A
Weather by CustomWeather, © 2015

See weather overviewHow to use our weather pages